Wind_Speed
91 90 89 88 88 88 87 87 86 86 86 86 85 84 84 84 83 83 82 82 82 82 81 81 81 81 82 82 83 83 83 84 84 83 83 84 85 85 86 86 86 86 86 86 86 86 86 86 88 89 89 89 90 93 94 93 94 94 95 96 97 98 98 99 101 103 104 105 107 108 108 106 105 104 101 95 89 83 80 79 77 76 76 77 77
93 93 92 92 91 91 91 90 90 90 89 89 88 88 88 87 86 85 84 84 83 83 83 83 83 84 84 84 85 85 85 85 85 84 84 85 86 86 87 87 87 87 87 86 86 87 87 87 89 90 90 90 92 94 94 93 94 94 95 97 98 99 99 100 102 103 104 106 108 108 107 106 104 101 96 89 84 81 79 78 78 77 78 78 78
96 96 95 95 95 94 93 93 93 93 92 92 92 92 92 91 90 89 87 87 86 86 86 86 86 86 86 86 86 86 86 86 86 86 86 86 87 87 87 88 88 88 87 87 87 87 87 88 89 91 91 92 93 94 93 93 94 95 97 97 98 99 100 101 102 104 105 107 108 108 107 105 101 95 90 86 82 79 78 77 77 76 76 75 75
99 99 98 98 97 97 97 97 96 96 96 96 96 96 96 96 94 93 92 91 90 89 88 88 88 88 88 88 88 88 88 88 88 88 88 88 88 88 88 88 88 88 87 87 88 88 88 89 91 92 93 92 93 93 93 94 95 96 97 98 98 99 100 101 103 104 106 106 107 107 105 101 96 91 87 84 80 78 77 76 75 74 73 73 74
102 101 101 100 100 100 100 100 100 100 100 100 100 100 100 99 98 97 96 95 93 92 91 91 90 90 90 90 90 90 89 89 89 89 89 89 89 88 88 88 88 88 88 88 89 89 90 90 92 94 93 91 91 92 93 95 96 97 98 98 99 99 100 102 104 105 106 106 106 105 102 97 93 89 85 82 79 78 76 75 73 72 72 73 75
104 104 104 104 103 103 104 104 103 104 104 104 104 104 103 102 101 100 99 98 97 95 94 93 93 92 91 91 91 91 91 91 90 90 90 90 89 89 88 88 88 88 88 89 89 90 91 92 93 93 92 90 91 93 94 95 96 97 98 98 99 100 101 103 104 105 106 106 104 102 99 95 91 87 84 81 79 77 75 73 72 72 72 74 76
107 107 107 106 107 107 107 107 107 107 107 107 107 106 105 104 103 102 101 100 98 97 96 95 95 94 93 92 91 91 91 91 90 90 90 90 89 88 88 88 88 89 89 90 91 92 93 93 92 92 91 91 92 93 94 95 96 97 98 98 99 100 101 103 105 105 105 105 103 100 97 93 89 86 83 81 79 77 75 74 73 73 73 75 77
109 109 109 108 109 109 109 109 109 108 108 108 107 106 105 105 104 103 102 100 99 98 97 96 95 94 93 92 92 91 90 90 90 91 91 90 90 90 89 90 90 90 91 91 92 93 93 92 91 91 92 92 93 93 94 95 96 97 98 98 99 100 102 104 105 105 105 104 101 98 95 92 88 86 84 82 79 78 77 75 75 74 75 77 79
112 111 111 111 111 111 110 110 109 109 108 107 106 105 104 103 102 101 100 100 99 98 97 96 95 94 94 92 92 91 91 91 92 92 92 92 91 91 91 92 92 92 93 93 93 93 92 90 90 92 94 93 93 94 94 95 96 97 98 99 99 101 102 104 105 105 104 103 100 97 94 90 88 86 84 83 80 78 77 76 76 77 77 79 82
116 115 114 113 113 111 110 109 109 108 107 105 104 103 102 101 99 99 98 98 98 98 97 96 95 94 94 93 92 91 91 92 93 94 94 94 94 94 94 94 94 94 94 94 93 92 91 91 92 94 94 94 94 94 95 96 97 98 98 99 100 102 103 104 105 104 103 101 98 96 93 90 89 87 85 83 81 79 78 78 79 80 81 82 85
117 116 116 115 113 112 110 109 108 106 105 103 102 101 100 98 98 97 98 98 98 97 97 96 95 94 94 93 92 92 92 93 94 95 95 95 95 95 95 95 95 95 93 92 91 91 92 93 94 94 95 94 94 95 96 97 98 98 99 99 101 102 103 104 104 103 101 99 97 95 93 91 89 87 84 83 82 81 81 81 82 84 85 86 88
117 116 115 114 113 112 110 108 106 104 103 102 100 99 97 97 96 96 96 96 96 96 96 96 95 94 93 92 92 92 93 94 95 96 96 97 97 97 96 95 94 93 92 92 92 93 94 94 94 94 95 95 96 96 97 98 98 98 99 100 101 102 103 103 103 102 100 98 97 95 93 90 88 86 85 84 83 83 83 83 84 86 88 90 91
116 114 112 111 109 107 106 104 102 101 100 98 96 95 94 94 94 95 95 95 95 95 95 95 94 94 93 93 93 93 94 95 96 97 97 97 96 94 93 91 91 91 92 93 95 95 95 95 95 95 96 97 97 97 97 98 98 99 100 101 101 102 102 103 102 101 100 98 97 95 92 90 88 87 86 85 85 85 85 85 86 88 91 93 95
115 112 110 107 105 102 100 98 97 96 96 95 93 92 91 92 93 94 94 94 94 94 94 94 94 94 94 93 94 94 95 95 95 95 94 93 91 91 90 91 92 93 95 96 97 97 97 97 96 97 98 98 98 98 98 98 99 100 101 101 101 102 102 102 102 101 100 99 96 93 91 89 88 87 87 87 86 87 87 88 89 91 93 96 98
115 114 111 108 105 102 99 96 94 92 91 91 90 90 90 91 92 93 93 92 92 92 92 92 91 91 90 90 90 90 91 92 92 92 92 92 92 93 94 95 97 98 99 100 100 99 99 99 98 98 98 99 99 98 99 100 101 102 102 101 102 103 103 102 101 100 99 97 94 91 90 89 89 88 88 88 88 89 90 91 92 94 96 98 100
117 116 114 111 108 106 103 98 93 90 88 86 86 86 88 90 92 94 95 94 94 94 93 92 91 91 90 90 90 91 91 91 92 93 94 95 96 97 98 100 101 102 102 102 102 102 101 100 100 99 100 100 100 99 100 101 102 102 102 102 102 102 102 101 100 99 98 95 93 91 91 90 89 88 88 89 90 91 91 93 94 96 97 98 99
121 120 118 116 114 112 108 102 95 90 87 85 85 85 86 89 91 94 95 97 98 98 98 98 98 98 98 98 98 98 98 97 97 97 98 99 100 101 103 104 104 104 104 104 104 103 103 102 101 101 101 101 101 102 102 103 103 103 102 102 102 101 101 100 100 98 96 94 93 92 91 90 89 88 89 90 91 92 93 94 96 97 97 97 99
124 123 122 121 120 117 112 106 100 93 89 87 86 86 86 87 90 92 94 96 98 100 101 103 103 104 104 105 105 105 105 105 104 104 104 105 106 106 107 107 106 106 106 106 106 105 104 104 103 102 102 103 104 104 105 105 105 104 103 102 102 101 101 100 98 97 95 94 93 92 91 90 89 89 89 90 92 93 95 96 97 98 98 98 101
127 126 124 123 121 119 115 111 106 101 95 91 90 89 88 87 89 91 93 94 96 98 100 103 104 106 106 107 108 109 109 109 109 109 109 110 110 110 110 109 109 109 109 108 108 107 106 105 105 104 104 105 106 107 107 107 106 104 103 102 101 100 99 98 96 95 94 94 93 93 92 91 90 89 90 92 93 95 96 97 98 98 98 100 104
132 130 126 123 121 119 117 114 110 107 102 96 94 93 92 90 90 92 94 94 95 96 98 100 102 104 106 107 108 109 110 110 111 111 111 112 112 111 111 111 111 112 112 111 110 109 108 107 107 106 106 107 108 109 109 107 105 102 101 100 99 98 96 95 95 94 94 94 94 94 92 91 90 90 92 93 94 96 97 98 98 99 99 101 105
135 132 129 126 123 121 119 116 113 111 107 102 98 95 94 93 93 94 95 96 96 96 96 97 99 101 103 104 106 107 109 110 110 111 111 112 112 112 113 114 114 115 114 113 111 110 109 108 108 108 108 108 109 109 108 105 101 99 98 98 96 95 93 93 93 94 94 94 95 94 93 91 91 92 93 94 95 97 98 98 99 100 101 102 105
136 134 131 127 125 123 122 120 118 116 112 108 103 100 98 96 95 95 96 99 100 99 99 98 98 99 100 101 103 104 106 108 110 111 112 113 114 115 115 116 116 116 114 113 112 111 110 110 109 109 109 109 109 107 104 100 97 95 95 95 94 92 92 92 92 93 94 95 95 95 94 92 92 92 93 95 96 98 98 99 100 101 102 103 106
135 133 132 129 127 125 125 124 123 121 119 116 113 110 108 105 103 103 104 105 106 105 104 104 103 102 102 102 103 104 105 106 107 109 110 111 112 112 113 113 113 113 112 111 111 110 110 110 109 109 109 108 106 103 98 95 93 92 93 92 91 91 91 91 91 92 93 94 95 95 95 93 93 93 94 96 97 98 98 100 101 102 103 105 107
133 131 130 129 128 126 126 125 124 123 122 121 120 118 117 116 115 115 115 115 114 113 111 110 109 108 108 107 108 108 109 109 108 108 108 108 109 110 110 111 112 112 112 111 111 110 109 109 109 108 107 105 102 97 92 90 90 90 90 90 90 90 90 89 90 91 92 93 94 95 95 94 94 94 95 97 98 99 100 101 102 103 104 107 108
132 130 128 127 126 125 125 125 124 123 122 121 120 120 120 119 118 118 118 118 117 116 116 116 115 114 112 111 111 111 111 111 111 111 111 111 111 111 112 112 112 111 111 110 109 108 108 107 105 104 103 101 96 90 87 87 88 89 90 90 89 89 88 88 89 89 91 93 94 95 95 94 94 95 96 98 99 100 101 102 103 104 106 108 109
130 129 127 126 125 124 124 123 123 122 122 120 119 119 119 118 116 115 115 116 116 116 116 116 117 115 113 111 111 110 109 108 108 108 109 108 108 108 107 106 105 104 103 103 102 102 101 100 99 98 98 94 90 86 84 86 88 89 89 89 88 88 88 88 88 89 91 92 93 94 94 94 95 96 98 99 100 101 102 102 104 105 107 109 110
128 128 127 127 126 125 124 122 122 121 120 120 118 117 117 116 114 113 112 113 114 114 114 114 114 113 111 110 108 106 105 103 102 101 101 100 99 98 97 96 96 95 95 94 94 94 94 94 94 94 92 88 85 85 86 87 88 88 88 88 88 87 88 88 89 89 90 91 91 92 93 94 96 98 100 101 102 102 103 104 105 107 108 110 112
126 126 127 127 126 125 123 122 121 120 119 118 117 115 114 113 112 111 110 110 111 111 111 111 110 109 108 106 104 102 99 97 95 95 94 92 90 89 89 89 89 89 90 90 90 91 90 90 90 89 87 85 85 85 86 87 87 87 87 88 88 88 89 90 91 91 91 91 90 90 91 94 97 100 102 103 104 104 104 105 106 108 109 111 113
125 125 125 125 125 124 123 121 120 119 118 116 115 113 112 111 110 109 109 109 109 108 107 107 106 104 102 100 98 97 95 92 91 89 87 85 84 84 85 86 87 87 88 88 88 88 87 87 86 84 83 83 84 84 85 86 86 87 88 89 90 91 92 94 94 94 93 91 90 89 91 94 98 100 101 103 103 104 104 105 107 109 111 113 114
123 123 123 123 122 122 121 120 119 118 117 115 113 111 109 108 108 107 106 106 106 105 103 102 101 100 98 95 93 92 91 88 87 84 82 81 81 82 83 85 85 85 85 85 85 84 83 82 81 80 80 81 82 84 85 86 87 88 89 91 92 94 96 97 95 94 92 91 91 91 93 96 98 100 101 103 104 105 106 108 110 111 113 114 116
119 120 120 119 119 118 117 117 117 116 115 113 111 109 107 105 104 104 103 102 101 100 98 97 96 95 93 91 89 87 86 84 82 80 79 79 80 81 82 83 83 82 81 80 79 78 78 78 78 78 80 81 83 84 85 86 88 90 92 94 95 95 96 95 93 91 91 93 94 95 97 98 100 102 103 105 106 107 109 111 112 113 115 116 117
115 115 115 115 115 115 114 114 114 114 112 111 109 107 105 104 102 100 99 98 97 96 95 94 91 87 85 85 85 83 80 79 78 78 78 79 80 82 82 80 78 76 75 73 73 74 75 76 77 79 80 81 82 84 86 88 90 92 94 95 95 95 94 92 89 90 92 94 96 97 99 101 103 105 107 108 109 110 112 112 113 115 117 118 118
111 112 111 111 111 111 111 111 111 111 110 109 108 106 104 103 101 99 98 96 95 94 93 92 89 85 82 81 81 79 76 76 77 78 78 80 81 81 78 75 73 72 72 72 73 74 75 77 78 79 80 81 82 84 87 89 91 93 94 95 95 95 93 91 90 91 93 95 97 100 102 104 106 108 109 110 111 112 113 114 115 117 118 119 121
107 108 108 108 108 108 108 109 109 108 108 107 106 105 104 102 100 99 97 95 93 91 90 88 86 83 79 77 75 75 75 76 77 78 79 80 80 78 74 72 71 72 73 74 75 76 77 78 79 80 80 82 83 85 88 90 91 92 94 95 96 96 96 95 94 95 97 99 101 103 105 107 108 109 110 112 113 114 115 116 117 118 120 121 123
103 104 105 105 105 105 106 106 106 106 106 105 105 104 103 102 100 98 96 94 92 89 86 83 80 76 75 74 73 74 75 77 79 79 79 79 79 76 73 71 73 74 76 77 78 79 79 80 81 82 83 84 86 87 89 90 91 93 94 95 97 98 99 98 98 99 100 101 103 105 107 108 109 111 112 113 114 115 117 118 119 120 122 123 124
99 100 101 102 102 103 103 104 104 104 104 104 104 103 102 101 100 98 96 94 91 88 84 80 77 75 74 74 74 75 77 79 79 79 80 80 79 76 74 74 75 76 77 78 79 80 81 82 83 84 85 86 88 89 91 92 92 93 94 95 97 98 99 100 100 100 101 102 104 106 108 110 111 113 114 115 116 117 118 119 120 122 123 124 125
97 98 98 98 99 100 101 102 102 102 102 102 102 101 100 99 99 98 96 93 90 86 83 80 79 77 76 75 75 76 78 80 80 80 81 81 80 78 77 77 78 78 78 79 80 81 82 83 84 85 87 89 90 92 93 93 94 94 95 97 98 99 100 101 102 103 104 106 107 107 108 110 112 113 115 116 117 118 119 121 122 123 124 125 126
99 98 97 97 97 97 98 99 100 100 100 100 99 99 99 99 98 98 96 93 89 86 83 82 82 80 78 77 78 79 80 82 82 82 83 82 81 80 79 79 79 80 80 82 83 83 84 85 86 88 90 91 93 94 95 96 96 97 99 100 102 103 103 104 105 107 109 109 108 109 110 111 112 113 115 116 117 119 120 122 123 124 125 126 127
101 101 100 98 97 96 97 97 98 98 98 98 97 97 98 98 97 96 95 92 89 86 84 84 83 82 80 79 81 83 84 84 84 84 83 83 82 81 81 81 81 82 83 85 86 86 87 88 90 91 93 94 96 97 98 99 100 102 103 104 105 106 107 107 108 110 110 110 110 111 112 113 115 116 117 117 118 120 121 122 124 125 126 127 128
106 104 103 101 100 98 97 97 97 97 97 97 97 96 96 97 96 95 94 92 89 86 85 84 85 84 82 81 81 83 84 85 86 86 85 84 83 82 82 83 84 86 87 88 88 89 90 91 92 94 95 97 98 99 101 102 104 105 106 107 107 108 109 110 111 111 112 113 114 114 114 115 117 119 120 120 121 122 123 123 125 126 127 128 130
110 109 107 106 104 102 100 99 98 98 97 97 97 96 96 96 95 94 93 91 89 86 85 85 86 86 84 82 82 83 83 84 86 88 88 86 85 84 83 85 86 88 89 91 91 92 92 93 94 95 96 98 100 102 104 105 106 106 107 107 108 109 110 112 113 114 115 116 116 116 116 117 118 118 119 121 123 124 124 125 126 127 128 129 130
113 112 111 110 108 107 104 102 101 100 99 98 97 97 96 95 94 93 91 89 87 86 85 86 87 87 85 83 84 86 88 88 88 89 90 90 89 88 87 88 89 90 91 93 94 94 94 95 95 96 98 99 100 101 102 103 104 105 107 107 109 110 112 114 115 116 116 116 116 115 116 118 118 119 120 121 122 123 124 125 126 128 129 130 132
111 112 113 112 112 111 109 108 106 103 102 100 99 98 97 96 93 91 89 88 87 87 87 88 89 90 88 87 88 90 93 93 91 90 90 92 93 92 92 92 93 94 95 96 97 98 98 99 99 100 101 102 102 103 103 104 106 107 109 110 111 112 113 114 115 116 116 116 116 117 118 118 119 120 122 123 124 125 126 127 128 129 130 132 134
106 108 111 113 113 113 113 112 111 109 106 104 102 100 99 97 94 92 90 89 90 91 92 92 93 93 92 91 92 93 95 96 96 95 93 93 94 94 95 95 96 97 98 99 100 101 102 102 103 104 105 107 108 109 110 111 111 112 113 114 114 114 114 114 115 115 116 116 117 118 118 119 121 123 124 125 126 127 128 129 130 131 133 134 136
99 103 106 110 113 114 114 114 113 112 110 108 106 103 101 99 96 94 93 93 93 95 96 97 97 98 97 96 96 96 98 99 99 98 97 96 96 97 97 97 98 99 99 101 102 103 104 105 106 108 110 111 113 113 114 115 115 115 115 115 115 115 116 116 117 117 118 118 119 119 120 122 123 125 126 127 129 130 131 132 133 134 136 137 138
98 100 102 106 110 113 114 115 114 114 113 111 109 107 105 102 100 98 97 96 96 98 99 100 100 101 100 100 99 100 101 101 100 100 100 100 100 100 100 100 101 102 102 103 104 105 106 106 108 109 112 114 115 116 116 116 115 115 116 116 116 117 118 119 120 120 120 121 122 123 123 125 126 128 130 131 132 133 133 135 136 136 137 138 138
99 100 101 103 106 110 113 114 115 114 114 113 111 110 108 106 104 102 101 100 100 101 102 102 102 102 102 102 102 102 104 104 104 104 104 104 105 106 106 107 108 108 108 108 107 108 108 108 109 110 112 114 115 115 115 116 116 117 117 117 118 119 120 121 122 123 124 124 125 126 127 129 130 132 132 132 133 134 135 136 136 136 136 136 136
98 99 100 101 104 107 110 113 114 114 114 114 113 112 111 109 108 106 104 103 102 103 104 105 105 105 104 104 104 105 106 107 107 107 107 107 107 108 109 110 112 113 112 112 111 111 111 112 112 113 113 114 114 115 115 116 118 119 120 120 121 122 123 124 125 126 127 127 128 128 129 131 131 131 131 132 134 135 135 135 134 134 134 133 132
91 95 97 100 103 106 108 110 112 113 112 113 113 113 112 112 111 110 108 106 105 105 105 107 108 109 109 109 109 109 109 110 111 112 111 111 111 111 112 112 114 116 117 116 116 115 115 115 115 116 116 116 115 115 116 117 118 120 121 122 123 125 126 127 128 129 129 130 130 130 131 132 131 131 131 133 134 134 133 132 132 132 131 130 128
85 89 93 96 100 104 106 108 109 110 111 111 111 112 113 113 113 112 111 109 108 108 109 109 111 112 113 113 114 115 115 115 116 116 116 116 117 117 118 119 120 121 121 121 121 119 118 118 117 118 118 117 117 117 117 118 119 120 122 123 124 126 127 128 129 130 131 131 131 132 133 133 131 131 132 133 132 132 131 130 129 128 127 125 124
82 85 88 92 96 100 102 105 107 108 109 109 110 111 112 113 114 114 113 112 111 111 113 114 114 115 116 117 118 119 120 120 120 121 121 121 121 122 123 123 124 124 124 124 124 123 121 120 119 119 118 118 118 118 119 120 121 122 123 125 126 127 128 129 130 131 132 133 134 134 134 133 131 131 132 132 131 129 128 127 125 124 123 122 121
Wind_Direction
272 273 274 275 276 277 277 278 279 281 282 282 283 284 284 284 284 285 285 285 285 284 284 283 283 283 283 283 284 285 285 286 287 288 289 289 290 291 292 293 294 294 295 296 297 298 299 300 301 303 304 306 307 307 308 310 311 312 312 313 314 315 316 317 317 318 319 320 321 321 322 323 324 325 328 330 332 331 329 327 325 323 321 320 320
272 273 274 275 276 277 278 279 280 281 281 282 283 284 284 284 285 285 285 284 284 283 283 282 282 282 282 283 283 284 285 285 286 287 288 289 289 290 292 292 293 294 295 296 297 297 298 300 301 302 304 306 306 307 309 310 311 311 311 312 313 314 315 316 317 318 319 319 320 320 321 322 324 326 329 330 329 328 326 325 323 321 320 319 320
272 273 274 275 276 277 278 279 280 281 281 282 283 284 284 285 285 285 284 284 283 283 282 282 282 282 282 283 283 284 284 285 286 287 288 288 289 290 291 292 293 293 294 295 296 296 298 299 300 302 304 305 306 307 309 310 310 310 310 311 312 313 314 316 317 317 318 319 319 320 320 322 324 326 327 327 327 326 325 324 323 321 321 322 322
272 273 274 275 276 277 278 279 280 281 281 282 283 284 284 284 284 284 284 283 283 282 282 282 282 282 282 282 282 283 284 284 285 286 287 287 288 289 290 291 292 292 293 294 295 296 297 299 300 302 303 305 306 307 308 308 308 309 309 310 311 312 314 315 316 316 317 318 318 319 320 322 323 324 325 325 325 325 325 325 324 324 324 325 326
272 273 274 275 276 277 278 279 280 281 281 282 283 283 284 284 284 284 283 283 283 282 282 282 281 281 281 281 282 282 283 283 284 285 286 287 287 288 289 290 291 291 292 293 294 295 297 299 300 301 303 305 306 307 307 307 308 308 308 309 311 312 313 314 315 316 317 317 317 318 319 320 321 323 323 324 324 324 325 325 325 326 328 329 331
272 273 274 275 276 277 278 279 280 280 281 281 282 282 283 283 283 283 283 282 282 282 282 281 281 281 281 281 281 281 282 283 284 285 285 286 287 288 289 289 290 290 291 292 294 296 297 299 300 301 303 304 305 305 306 306 307 307 308 309 310 311 312 313 314 315 316 316 316 317 317 319 320 321 322 322 323 325 326 327 327 329 331 332 334
272 273 274 275 276 277 278 279 279 279 280 281 281 281 282 282 282 282 282 282 282 281 281 281 281 280 280 280 281 281 282 283 284 284 285 286 286 287 288 288 289 290 291 293 294 296 297 299 300 301 302 303 303 304 305 306 306 307 307 308 309 310 312 313 313 314 314 315 315 315 316 317 319 320 320 321 322 323 325 327 328 329 331 332 332
271 272 273 274 276 276 277 278 278 279 279 280 280 280 281 281 281 281 281 281 280 280 280 280 280 280 280 280 281 281 282 283 283 284 284 285 286 286 287 288 289 290 291 293 294 296 297 299 300 300 301 301 302 303 304 305 306 306 306 307 308 310 311 312 312 313 313 313 313 314 315 316 317 318 318 319 320 322 324 325 326 327 329 330 331
271 272 273 274 274 275 276 277 277 278 278 279 279 279 279 279 279 279 279 279 279 279 279 279 278 279 279 279 280 281 281 282 282 283 283 284 285 286 287 288 289 290 291 293 294 296 297 298 298 298 299 300 301 302 303 304 305 305 305 306 307 309 310 311 311 311 312 312 312 313 314 314 315 316 317 318 319 321 323 324 325 326 328 330 331
271 272 273 274 274 274 275 276 276 277 277 277 277 277 277 277 277 277 277 277 277 277 277 277 277 277 278 278 279 280 280 281 281 281 282 283 284 285 286 287 288 289 291 293 294 295 296 296 296 296 297 298 300 301 302 303 304 304 304 305 307 308 309 309 310 310 310 310 311 311 312 313 314 315 316 317 319 320 321 322 324 325 327 329 330
270 271 273 273 274 274 275 275 276 276 276 276 276 276 276 276 276 276 275 275 275 275 275 275 276 276 277 277 278 279 279 279 280 281 282 283 284 284 285 287 288 289 291 293 293 293 293 294 294 295 296 297 299 300 301 302 303 303 303 304 306 307 308 308 308 308 309 309 309 310 311 312 313 314 315 317 318 319 320 322 323 324 326 327 328
269 270 271 272 273 273 274 274 275 274 274 274 274 274 274 274 275 274 274 274 274 274 274 274 275 275 276 277 277 278 278 278 279 280 281 282 283 284 285 287 288 289 290 291 291 291 291 292 293 294 295 296 297 299 301 301 301 302 302 304 305 306 306 306 306 307 307 307 308 309 310 311 312 313 314 316 317 318 320 321 322 324 324 325 326
268 269 269 270 271 271 272 273 273 273 273 273 273 273 273 274 274 274 274 274 274 274 274 274 274 275 276 276 277 277 277 278 278 279 281 282 283 284 285 286 287 287 287 288 288 289 290 291 292 293 294 295 297 298 299 300 300 301 302 303 303 304 305 305 305 305 305 306 307 307 308 309 311 312 313 315 317 318 320 321 322 323 323 323 323
267 268 269 270 270 271 271 271 271 271 271 271 271 272 272 272 272 273 274 275 275 275 275 275 275 276 276 277 277 277 278 278 279 279 280 281 281 282 282 283 283 284 285 286 287 288 288 290 291 292 293 294 296 297 298 298 299 300 301 301 302 303 303 303 303 304 304 305 305 306 307 308 309 311 313 315 317 318 319 320 321 322 322 322 321
268 269 271 273 274 274 273 272 271 270 270 269 270 270 269 269 269 269 270 271 273 274 275 275 276 276 277 277 277 277 277 277 277 277 278 278 279 279 280 281 282 283 284 285 286 287 288 289 290 291 292 293 294 295 296 297 298 299 300 300 300 301 301 302 302 303 303 304 304 305 305 306 308 310 312 314 316 318 318 318 319 320 321 320 320
271 272 274 275 275 275 275 274 272 271 269 268 267 267 266 266 265 265 265 266 267 268 269 270 271 272 272 273 273 273 273 273 274 274 275 276 276 277 278 279 281 282 283 284 285 286 287 288 289 290 291 292 293 294 295 296 297 298 298 299 299 299 300 300 301 301 302 302 302 303 303 305 307 309 311 313 315 316 316 316 317 318 319 319 318
273 274 275 275 275 275 275 274 273 271 269 268 267 265 265 265 264 264 264 263 264 264 265 266 267 267 268 269 269 270 271 271 272 273 273 274 275 276 278 279 280 281 282 283 284 285 286 287 288 289 289 290 291 292 294 295 296 296 297 297 297 297 298 298 299 300 300 300 301 301 302 303 306 308 310 312 314 314 314 314 315 317 317 317 316
274 274 275 275 275 275 275 274 273 271 270 269 267 266 265 265 266 265 264 264 263 263 264 264 265 266 266 267 267 268 269 270 271 272 273 274 275 276 277 278 279 280 281 282 283 284 285 286 286 287 288 289 291 292 293 293 294 294 294 294 295 295 296 297 298 298 298 299 299 299 300 302 304 306 308 310 312 312 312 312 314 315 315 315 315
271 272 272 273 274 274 274 274 273 271 270 268 268 266 265 264 265 266 266 265 265 264 263 264 264 265 266 266 267 267 268 269 270 271 272 273 274 276 277 278 279 280 281 282 282 283 284 285 285 286 287 288 290 291 292 292 292 292 292 292 293 294 294 295 296 296 297 298 298 298 299 300 302 305 307 308 309 310 310 311 313 313 313 313 314
268 269 269 269 270 271 272 272 272 272 270 269 267 266 265 264 265 267 267 267 266 266 265 265 265 265 266 266 267 268 268 269 270 271 272 273 274 275 276 277 278 279 280 281 282 282 283 283 284 285 286 288 290 291 291 290 290 290 290 291 291 292 293 294 294 295 296 297 297 297 297 299 301 303 305 307 307 308 309 310 311 311 311 312 312
267 267 267 268 268 268 268 268 269 269 270 270 268 267 265 264 264 266 267 267 267 267 267 267 267 267 267 267 267 268 269 270 270 271 272 273 274 275 276 276 277 278 279 279 280 281 281 282 283 285 286 288 289 289 289 288 289 289 289 289 289 290 291 292 293 294 295 296 296 296 296 297 300 302 304 305 306 306 307 308 310 310 310 311 310
265 266 266 267 266 266 266 265 265 266 266 267 267 267 266 265 264 265 266 267 267 267 267 267 268 268 269 269 269 270 270 270 271 271 271 272 273 274 275 276 276 277 277 278 279 280 280 282 283 284 286 287 287 286 286 287 287 288 287 287 287 288 289 291 292 293 294 295 295 294 295 296 298 300 302 303 304 305 305 306 308 308 309 309 309
264 265 266 266 266 265 265 265 265 265 265 264 264 264 264 264 264 265 266 267 267 267 267 267 268 269 270 271 272 273 272 272 272 272 273 273 274 274 275 275 276 277 277 278 279 279 280 282 283 284 285 285 284 284 284 286 286 285 285 285 286 287 288 290 291 292 293 293 293 294 294 294 296 299 301 302 303 303 303 305 306 307 308 308 309
264 264 265 265 266 266 265 265 265 265 265 265 265 264 264 263 263 264 266 267 267 266 267 267 267 268 269 270 272 273 274 273 274 274 274 274 275 275 276 276 277 278 279 279 280 281 281 282 282 282 282 282 281 282 284 284 283 282 282 283 284 286 288 289 290 291 291 292 292 293 293 294 296 298 300 300 301 301 302 303 305 306 307 307 308
264 265 265 265 265 265 265 265 266 266 265 265 265 265 265 265 265 265 266 266 266 266 266 267 268 268 269 270 271 273 273 274 274 274 274 275 275 276 277 277 278 278 279 279 280 280 280 280 280 279 279 279 280 281 282 281 279 279 280 282 284 286 287 289 290 290 290 291 292 293 293 294 295 297 298 299 300 300 301 303 304 305 306 306 306
265 265 265 265 265 265 265 265 265 266 266 266 266 266 266 266 267 267 267 268 268 268 268 268 269 270 271 272 273 274 275 275 275 275 275 275 275 276 276 277 277 277 277 278 278 278 277 277 276 276 276 278 280 280 279 277 276 278 280 282 284 285 287 289 290 290 289 290 291 292 293 293 295 296 297 298 299 300 301 302 303 304 304 304 305
264 265 265 265 265 265 265 265 265 266 266 266 267 267 267 268 268 269 269 269 270 270 270 271 271 273 274 274 275 275 276 276 276 276 276 276 276 276 276 276 276 275 275 275 274 274 273 273 273 274 276 278 279 278 276 275 276 277 280 282 284 286 288 290 290 290 289 289 290 291 292 293 294 295 296 297 299 300 301 301 302 302 303 303 304
263 264 264 265 265 265 265 266 266 266 266 267 267 267 268 268 269 269 269 270 270 271 271 272 273 274 275 276 276 277 278 278 278 278 278 279 279 278 277 275 274 273 272 271 271 271 271 272 273 275 276 277 276 275 274 274 275 277 279 281 284 286 288 290 291 290 288 288 288 289 291 292 293 294 294 296 297 298 299 299 300 300 301 302 303
262 262 263 263 264 265 265 266 266 266 267 267 267 267 268 268 268 268 269 269 270 271 272 273 274 275 276 277 278 279 279 280 280 280 280 280 279 277 275 274 273 272 272 271 271 272 272 273 274 275 275 275 274 274 273 273 275 277 279 281 284 286 288 290 291 290 288 287 286 287 288 289 290 291 292 293 294 295 296 297 298 299 300 301 303
260 260 261 262 263 264 265 266 266 266 266 267 267 267 268 268 268 268 268 269 270 271 272 273 275 275 276 277 278 279 280 281 281 280 280 278 277 275 274 273 273 272 272 273 273 273 273 274 274 274 274 273 272 271 272 273 275 277 279 281 283 286 289 291 291 289 287 285 285 285 286 287 288 289 290 291 293 294 295 296 297 299 300 301 303
258 259 259 260 261 262 263 264 265 265 266 266 267 267 267 267 267 268 268 269 269 271 271 272 273 274 276 277 278 278 279 279 279 278 277 275 274 273 272 272 273 273 274 274 274 274 274 274 274 274 272 271 270 271 272 274 276 278 280 282 284 287 290 291 290 288 286 285 285 285 286 286 287 288 289 291 293 294 295 296 297 299 300 301 302
258 258 258 258 259 260 260 261 263 264 265 266 266 266 266 266 266 267 267 268 269 269 270 271 271 271 272 274 277 277 277 276 275 274 273 272 272 272 272 273 274 274 274 275 275 275 275 273 272 271 271 270 271 272 274 276 277 279 281 283 284 287 290 292 290 288 287 286 285 285 286 286 287 288 290 292 293 294 295 296 297 299 300 301 302
257 257 257 257 258 258 259 259 260 261 263 264 264 264 265 264 264 265 265 266 267 268 268 269 269 269 270 272 274 275 273 272 271 270 270 270 270 271 272 273 273 274 275 275 275 274 273 271 270 270 271 271 273 274 276 278 279 281 283 284 285 286 289 291 290 288 286 285 285 285 286 287 288 289 291 292 293 294 295 296 297 298 299 301 302
256 256 256 256 256 257 257 258 259 259 260 261 262 262 263 263 263 263 264 265 266 266 267 267 268 269 269 269 270 270 269 268 267 268 268 269 269 269 270 271 272 273 273 273 271 271 270 270 270 271 271 273 274 276 278 279 281 282 283 284 285 285 286 288 289 288 287 286 286 287 287 288 289 289 290 291 292 293 295 296 297 298 299 301 302
255 255 255 255 256 256 256 257 257 258 258 259 260 260 261 261 262 262 263 264 264 264 265 265 264 264 265 265 266 266 266 265 265 266 267 268 268 268 268 269 271 271 271 271 270 270 270 270 271 272 273 274 276 277 278 280 281 283 284 284 285 285 286 287 289 289 288 287 288 288 288 289 289 290 291 292 293 294 295 296 297 298 299 301 302
255 255 255 255 255 255 255 255 256 256 257 257 258 259 260 260 261 261 262 262 263 263 263 261 258 257 259 261 262 263 263 263 264 265 266 266 266 267 268 269 270 270 270 270 271 271 271 272 273 274 275 276 277 278 279 280 281 282 283 284 285 285 286 287 289 290 289 289 288 289 289 290 290 291 291 292 293 294 294 295 297 298 299 300 301
256 255 255 255 255 255 255 255 255 255 256 256 257 257 258 258 259 260 260 261 261 261 260 258 255 254 255 257 258 259 260 261 262 262 264 264 265 265 266 267 268 269 270 271 272 272 272 273 274 275 275 276 277 278 279 280 281 282 283 283 284 285 286 287 289 290 291 291 289 289 290 290 291 291 291 292 293 293 294 295 296 297 298 299 300
256 256 255 255 254 254 255 255 255 255 255 255 255 256 257 257 257 258 259 259 259 259 257 255 253 253 254 254 254 255 257 258 259 260 261 262 263 264 265 266 267 269 270 271 272 272 272 273 273 274 275 276 277 278 279 280 281 282 283 283 284 285 286 287 289 290 292 292 291 289 289 290 291 291 292 292 293 293 294 295 296 297 298 299 300
256 256 256 255 254 254 254 254 254 255 255 255 254 255 255 255 256 256 257 257 257 257 255 254 252 252 253 253 252 252 254 256 257 258 260 261 262 262 263 264 265 267 268 269 270 271 271 272 273 275 276 277 278 279 281 282 282 283 283 284 285 285 286 288 289 290 292 293 293 292 291 291 291 291 291 292 292 293 294 294 295 296 297 299 300
256 256 256 255 255 254 253 253 253 254 254 254 254 254 254 254 255 255 255 255 255 254 253 252 251 252 254 253 250 250 252 255 256 257 258 260 261 261 262 263 264 265 266 267 268 269 271 272 274 275 277 278 280 281 282 282 283 283 284 284 285 286 287 288 290 291 292 293 293 293 293 294 294 293 292 292 292 293 294 295 296 297 298 299 300
256 256 256 256 255 255 254 253 253 252 253 253 253 253 253 253 253 253 253 253 252 251 251 250 250 252 254 253 251 250 251 254 256 257 257 258 260 261 261 263 264 265 265 266 267 268 270 271 273 275 276 278 279 280 280 281 282 282 283 283 284 286 287 288 290 291 291 292 293 293 294 295 296 296 295 294 293 294 294 295 296 297 298 299 300
255 255 255 255 255 255 254 254 253 252 251 251 251 251 251 251 251 251 251 251 250 250 250 250 251 252 253 254 253 252 252 254 256 257 257 257 258 259 260 261 262 263 264 265 265 266 268 270 271 273 274 276 277 278 279 280 281 281 282 284 285 286 287 288 289 290 291 291 292 293 294 295 296 296 296 296 295 295 296 296 297 298 298 299 300
255 255 255 255 254 254 254 253 253 252 251 251 250 250 249 249 249 248 249 250 250 250 251 251 252 252 253 254 254 254 254 255 257 258 257 256 256 257 258 259 260 261 262 263 265 266 268 269 271 272 273 274 275 276 277 278 279 280 282 283 284 285 287 287 288 289 290 291 291 292 293 293 294 295 296 296 296 296 296 297 297 298 299 299 300
255 254 254 253 253 252 252 251 251 251 251 250 250 249 249 248 247 246 246 246 247 248 249 250 251 251 252 253 253 254 254 255 256 257 258 258 258 258 258 259 260 261 263 265 266 267 269 270 271 272 272 273 274 275 276 277 278 279 281 282 283 285 286 287 287 288 288 289 290 291 291 292 293 294 295 295 295 296 296 297 298 298 299 299 300
252 252 251 251 251 250 250 249 249 249 249 249 249 249 248 247 246 245 244 244 245 245 246 247 248 249 250 251 251 252 252 253 254 256 257 258 259 259 259 260 261 263 265 266 267 268 270 271 271 272 272 273 274 274 275 276 278 279 280 282 283 284 285 285 286 286 287 288 289 289 291 292 293 294 294 295 295 295 296 296 297 298 299 299 300
248 248 248 248 249 249 249 248 248 247 247 247 247 247 247 247 246 244 243 242 243 244 246 247 249 250 250 251 251 250 251 251 253 254 256 258 259 259 260 260 261 263 265 267 268 269 271 272 272 273 273 274 274 275 276 277 278 279 281 281 282 283 284 284 285 286 286 287 288 289 290 291 292 293 294 294 295 295 296 296 297 298 299 299 300
249 248 247 247 247 248 248 248 248 247 247 246 246 245 246 246 246 245 244 243 242 242 243 245 248 249 251 251 252 251 252 252 253 254 256 258 259 259 259 260 262 263 266 267 269 269 271 272 273 273 274 275 275 276 278 278 279 280 281 281 281 282 283 283 284 285 286 286 287 289 290 291 292 293 294 294 295 296 296 297 297 298 299 299 300
254 253 251 249 247 247 247 248 248 247 246 246 245 245 244 244 245 245 244 244 243 242 242 243 245 246 248 249 250 251 252 253 254 255 256 257 259 259 260 261 262 264 266 268 269 269 270 271 272 272 274 275 276 277 278 279 279 280 280 281 281 282 283 283 284 285 286 287 288 289 291 292 293 293 294 294 295 296 297 297 297 298 298 299 299
256 255 254 252 250 249 248 248 248 247 246 245 245 245 244 244 244 244 244 243 243 243 243 243 243 244 246 247 248 249 251 252 253 254 255 256 257 258 259 260 262 264 266 267 268 269 270 270 271 271 273 274 276 277 278 278 279 279 280 281 281 282 283 284 285 285 286 287 288 289 291 292 292 293 294 295 296 296 297 297 297 298 298 299 299
255 254 253 252 252 251 250 250 250 249 248 246 245 244 244 243 243 243 243 243 243 243 243 244 244 244 245 246 246 247 249 250 252 253 254 255 256 257 258 259 261 263 265 267 268 269 269 270 270 271 272 273 274 275 276 277 278 279 280 281 281 282 283 284 285 286 287 288 288 289 291 291 292 293 294 295 296 296 296 297 297 297 298 298 299
253 252 252 251 251 251 251 251 251 251 250 248 246 245 244 243 243 243 243 243 242 242 242 243 243 244 245 246 246 247 248 249 250 252 253 254 256 257 258 259 261 263 264 266 267 268 269 269 270 271 271 272 273 274 275 276 277 278 279 280 281 282 283 284 285 286 287 288 289 289 290 291 292 294 295 296 296 296 296 296 297 297 298 299 299
Height
10736 10737 10738 10740 10740 10740 10740 10741 10742 10742 10742 10741 10741 10741 10739 10738 10737 10736 10736 10735 10732 10731 10730 10728 10726 10725 10723 10723 10721 10719 10717 10715 10713 10712 10710 10706 10702 10699 10696 10693 10691 10687 10683 10680 10675 10672 10670 10667 10662 10657 10655 10653 10648 10642 10638 10634 10629 10624 10619 10614 10609 10605 10601 10595 10589 10581 10575 10569 10564 10558 10553 10547 10542 10535 10527 10520 10513 10508 10503 10499 10495 10490 10486 10481 10476
10727 10728 10729 10730 10731 10731 10732 10733 10733 10733 10733 10733 10732 10731 10730 10729 10729 10729 10728 10726 10724 10723 10721 10719 10717 10716 10715 10713 10711 10709 10708 10706 10704 10703 10701 10697 10694 10691 10688 10685 10682 10679 10676 10672 10668 10664 10662 10659 10654 10650 10648 10646 10640 10634 10631 10626 10621 10616 10611 10607 10602 10597 10593 10588 10581 10574 10568 10562 10556 10551 10546 10540 10534 10526 10519 10514 10509 10504 10500 10495 10491 10486 10481 10477 10472
10717 10719 10720 10721 10721 10722 10723 10724 10724 10724 10724 10723 10723 10722 10721 10720 10720 10720 10719 10717 10716 10714 10712 10710 10709 10707 10706 10704 10702 10700 10698 10696 10695 10694 10692 10688 10686 10683 10680 10677 10674 10670 10667 10664 10660 10657 10654 10651 10647 10642 10641 10638 10632 10627 10623 10618 10613 10608 10603 10599 10595 10589 10584 10580 10574 10568 10561 10555 10549 10543 10538 10532 10526 10519 10514 10510 10505 10501 10496 10491 10487 10482 10477 10472 10467
10709 10710 10711 10711 10712 10713 10714 10714 10714 10715 10714 10713 10713 10712 10711 10711 10710 10710 10709 10707 10706 10705 10703 10701 10700 10699 10697 10694 10692 10690 10689 10687 10686 10685 10682 10679 10678 10675 10672 10669 10666 10663 10660 10656 10652 10649 10647 10644 10639 10634 10632 10630 10624 10619 10615 10610 10605 10600 10595 10591 10586 10582 10577 10572 10566 10561 10555 10549 10542 10536 10530 10525 10520 10515 10510 10506 10501 10496 10492 10487 10482 10476 10471 10466 10460
10700 10701 10702 10702 10703 10704 10704 10704 10705 10705 10704 10704 10703 10702 10701 10701 10700 10699 10698 10697 10696 10695 10694 10692 10691 10690 10688 10685 10683 10681 10679 10678 10677 10675 10672 10670 10669 10667 10664 10661 10658 10655 10651 10648 10644 10641 10639 10636 10631 10626 10624 10622 10616 10611 10607 10602 10597 10592 10587 10582 10578 10574 10569 10564 10559 10553 10548 10542 10537 10530 10524 10519 10515 10510 10505 10501 10496 10491 10486 10481 10475 10470 10465 10459 10453
10691 10692 10692 10693 10694 10694 10694 10695 10695 10695 10694 10693 10692 10691 10690 10690 10689 10688 10686 10686 10686 10685 10684 10682 10681 10680 10678 10676 10674 10672 10670 10668 10667 10666 10663 10661 10659 10657 10655 10652 10649 10646 10643 10639 10636 10632 10630 10627 10622 10618 10616 10614 10609 10604 10599 10594 10589 10584 10578 10574 10570 10566 10562 10557 10551 10546 10540 10535 10530 10524 10519 10514 10509 10504 10499 10495 10490 10485 10480 10474 10468 10463 10458 10453 10447
10682 10683 10684 10684 10684 10684 10683 10684 10684 10683 10683 10682 10681 10680 10679 10678 10678 10677 10675 10675 10675 10674 10673 10671 10670 10670 10668 10667 10665 10662 10661 10659 10658 10655 10653 10651 10650 10648 10646 10643 10640 10637 10634 10630 10627 10624 10621 10618 10614 10609 10608 10605 10601 10596 10592 10586 10581 10576 10570 10566 10562 10558 10554 10549 10544 10539 10533 10528 10523 10518 10513 10507 10503 10498 10493 10488 10484 10479 10474 10469 10462 10457 10452 10447 10441
10673 10674 10675 10675 10674 10673 10672 10672 10672 10671 10671 10670 10669 10668 10668 10667 10666 10665 10665 10664 10664 10662 10661 10660 10659 10659 10658 10656 10655 10653 10652 10651 10648 10645 10643 10641 10640 10638 10635 10633 10630 10627 10624 10622 10619 10615 10612 10609 10605 10601 10599 10597 10594 10589 10584 10579 10573 10568 10563 10558 10554 10551 10547 10541 10536 10531 10526 10521 10516 10511 10506 10501 10496 10491 10486 10482 10478 10473 10468 10463 10457 10452 10447 10441 10435
10661 10663 10665 10664 10663 10662 10662 10661 10661 10660 10659 10658 10657 10657 10656 10655 10654 10654 10653 10653 10652 10651 10651 10650 10649 10648 10647 10646 10645 10644 10643 10641 10638 10635 10633 10632 10630 10627 10625 10623 10620 10618 10615 10612 10610 10606 10603 10600 10597 10593 10591 10589 10586 10581 10577 10571 10565 10560 10555 10551 10547 10543 10539 10533 10528 10523 10518 10513 10508 10504 10499 10494 10489 10485 10480 10475 10471 10466 10462 10457 10452 10447 10441 10435 10428
10649 10651 10652 10651 10650 10651 10651 10650 10650 10648 10647 10646 10645 10645 10645 10644 10644 10643 10642 10641 10640 10639 10639 10640 10639 10638 10637 10636 10636 10635 10633 10631 10627 10625 10623 10622 10619 10617 10615 10613 10610 10608 10606 10603 10600 10597 10595 10592 10589 10586 10583 10581 10577 10573 10569 10564 10558 10553 10547 10543 10539 10535 10531 10526 10520 10515 10510 10505 10500 10496 10492 10487 10482 10477 10472 10468 10464 10459 10455 10451 10445 10440 10434 10428 10422
10639 10639 10639 10637 10637 10638 10638 10637 10637 10636 10635 10634 10633 10633 10633 10633 10633 10632 10631 10630 10629 10629 10629 10630 10629 10627 10627 10626 10626 10625 10623 10620 10617 10615 10613 10611 10609 10607 10605 10603 10601 10599 10597 10594 10591 10588 10586 10583 10581 10577 10574 10572 10569 10565 10561 10556 10551 10545 10540 10536 10532 10528 10523 10518 10512 10507 10502 10497 10492 10488 10484 10479 10474 10469 10465 10460 10456 10452 10447 10443 10438 10433 10427 10421 10416
10628 10629 10627 10626 10625 10625 10624 10624 10623 10622 10622 10621 10621 10621 10621 10621 10621 10620 10619 10619 10618 10619 10619 10619 10618 10617 10617 10617 10615 10614 10612 10609 10607 10605 10603 10601 10599 10597 10595 10593 10591 10589 10587 10585 10582 10580 10578 10575 10572 10568 10565 10563 10560 10557 10553 10548 10543 10538 10532 10528 10524 10520 10515 10510 10504 10499 10494 10489 10485 10480 10476 10472 10466 10461 10457 10453 10448 10444 10439 10434 10430 10425 10420 10414 10409
10615 10616 10615 10614 10614 10613 10612 10611 10610 10609 10609 10608 10609 10609 10609 10608 10608 10607 10607 10607 10607 10608 10608 10607 10607 10607 10606 10606 10604 10603 10601 10598 10596 10594 10592 10590 10588 10586 10585 10583 10581 10579 10577 10575 10573 10570 10569 10566 10563 10559 10556 10554 10552 10549 10545 10540 10535 10530 10525 10520 10516 10511 10507 10501 10496 10491 10486 10482 10478 10473 10468 10464 10459 10454 10450 10446 10441 10436 10431 10427 10422 10418 10413 10407 10402
10601 10600 10599 10599 10600 10599 10599 10599 10598 10597 10597 10597 10597 10598 10597 10597 10596 10595 10596 10596 10596 10597 10596 10596 10596 10595 10595 10594 10593 10591 10589 10587 10585 10584 10581 10579 10578 10576 10575 10573 10571 10569 10568 10566 10563 10561 10559 10557 10554 10550 10546 10544 10543 10540 10536 10532 10526 10521 10516 10511 10506 10502 10497 10492 10487 10483 10478 10474 10470 10465 10460 10456 10452 10447 10442 10438 10434 10428 10424 10419 10415 10411 10406 10401 10395
10583 10582 10581 10581 10582 10582 10583 10584 10585 10585 10586 10586 10586 10586 10585 10585 10585 10585 10585 10586 10585 10585 10585 10585 10585 10584 10583 10582 10581 10580 10578 10576 10575 10573 10571 10569 10568 10566 10564 10562 10561 10559 10557 10555 10553 10552 10549 10547 10544 10540 10536 10534 10533 10531 10528 10524 10518 10513 10507 10503 10498 10493 10488 10483 10478 10474 10469 10465 10461 10457 10452 10448 10445 10440 10434 10430 10426 10421 10416 10412 10408 10404 10400 10394 10387
10565 10564 10564 10565 10565 10565 10566 10568 10571 10572 10572 10574 10575 10574 10573 10573 10573 10573 10574 10575 10575 10575 10574 10574 10574 10573 10572 10571 10570 10568 10566 10565 10564 10562 10560 10558 10557 10555 10553 10551 10549 10548 10546 10545 10543 10541 10540 10537 10534 10531 10527 10524 10523 10522 10520 10516 10510 10504 10498 10493 10489 10484 10479 10475 10470 10466 10462 10458 10454 10449 10445 10441 10437 10433 10428 10423 10419 10414 10410 10405 10400 10397 10393 10387 10380
10547 10546 10548 10550 10549 10549 10551 10553 10556 10558 10559 10561 10561 10560 10560 10560 10559 10560 10561 10561 10562 10562 10562 10562 10561 10561 10560 10558 10557 10556 10554 10553 10552 10550 10549 10547 10545 10543 10541 10539 10538 10536 10535 10534 10532 10531 10529 10526 10524 10521 10517 10514 10513 10512 10510 10506 10502 10496 10490 10485 10480 10475 10471 10466 10462 10458 10454 10450 10446 10442 10438 10433 10429 10426 10421 10416 10411 10406 10402 10398 10393 10389 10385 10379 10373
10531 10531 10532 10533 10531 10534 10538 10540 10542 10544 10546 10548 10547 10546 10548 10548 10547 10547 10548 10548 10548 10548 10548 10548 10547 10547 10546 10545 10544 10543 10542 10541 10540 10539 10537 10535 10533 10531 10529 10528 10526 10525 10523 10522 10521 10520 10519 10516 10513 10511 10508 10505 10502 10500 10499 10496 10492 10487 10482 10476 10471 10467 10462 10458 10455 10450 10446 10442 10438 10434 10430 10426 10422 10419 10414 10409 10404 10399 10394 10390 10385 10381 10377 10371 10366
10516 10518 10520 10519 10519 10522 10525 10527 10528 10530 10533 10535 10534 10533 10534 10535 10535 10535 10534 10534 10534 10534 10534 10534 10534 10533 10532 10532 10531 10530 10529 10528 10528 10527 10526 10523 10522 10520 10517 10516 10514 10512 10511 10510 10510 10509 10508 10505 10503 10500 10497 10495 10492 10489 10487 10485 10481 10477 10472 10467 10463 10458 10454 10450 10446 10441 10437 10433 10430 10425 10422 10418 10415 10411 10407 10402 10397 10391 10386 10382 10378 10373 10369 10363 10357
10501 10505 10508 10510 10512 10513 10514 10515 10516 10516 10518 10521 10522 10520 10521 10523 10522 10522 10521 10521 10521 10521 10521 10521 10520 10520 10519 10519 10518 10518 10517 10516 10515 10514 10513 10511 10509 10508 10506 10504 10502 10499 10498 10498 10498 10497 10496 10493 10491 10488 10487 10485 10481 10478 10475 10472 10470 10467 10462 10458 10454 10449 10445 10441 10437 10433 10429 10425 10421 10417 10413 10410 10407 10403 10398 10393 10388 10383 10378 10374 10370 10366 10361 10356 10349
10487 10491 10495 10499 10502 10504 10504 10504 10504 10504 10505 10507 10508 10509 10510 10510 10510 10509 10509 10508 10509 10509 10508 10507 10507 10507 10506 10506 10505 10504 10503 10502 10501 10500 10499 10498 10496 10495 10494 10492 10489 10487 10487 10487 10487 10485 10483 10481 10479 10477 10476 10474 10470 10466 10463 10460 10459 10456 10452 10448 10444 10440 10436 10432 10428 10424 10420 10417 10413 10409 10405 10402 10398 10394 10390 10385 10379 10374 10369 10365 10361 10357 10352 10347 10341
10473 10476 10481 10486 10488 10489 10490 10491 10491 10492 10493 10495 10496 10497 10497 10497 10497 10496 10496 10496 10497 10497 10496 10495 10494 10494 10493 10492 10492 10491 10489 10488 10487 10486 10485 10484 10483 10482 10480 10478 10476 10475 10475 10475 10474 10473 10471 10469 10468 10466 10464 10462 10459 10455 10451 10449 10447 10445 10441 10437 10434 10431 10428 10423 10419 10415 10411 10408 10404 10400 10397 10393 10389 10385 10381 10376 10370 10365 10361 10357 10353 10348 10343 10338 10333
10459 10463 10467 10470 10472 10474 10475 10475 10475 10477 10479 10481 10483 10484 10485 10485 10484 10482 10481 10482 10483 10484 10483 10482 10482 10482 10481 10480 10479 10478 10477 10475 10474 10473 10472 10471 10470 10469 10467 10465 10463 10462 10462 10462 10461 10460 10458 10457 10456 10454 10452 10449 10447 10443 10440 10438 10436 10433 10429 10426 10424 10421 10418 10415 10411 10407 10403 10399 10395 10392 10388 10384 10380 10376 10372 10367 10362 10357 10352 10348 10344 10339 10334 10329 10323
10444 10449 10453 10455 10456 10458 10459 10459 10460 10462 10464 10466 10467 10468 10470 10470 10470 10470 10469 10468 10469 10470 10470 10469 10469 10469 10468 10467 10466 10465 10464 10463 10462 10461 10460 10458 10456 10455 10453 10451 10450 10449 10448 10448 10446 10446 10446 10445 10443 10441 10439 10436 10434 10432 10430 10427 10424 10421 10418 10416 10414 10411 10408 10405 10402 10398 10394 10390 10386 10383 10379 10375 10371 10367 10363 10358 10353 10348 10344 10340 10335 10330 10325 10319 10314
10428 10433 10436 10439 10441 10442 10443 10444 10444 10446 10448 10451 10452 10452 10453 10454 10455 10456 10455 10454 10455 10456 10456 10455 10454 10455 10456 10455 10454 10452 10451 10450 10449 10448 10447 10445 10443 10441 10440 10438 10437 10436 10435 10434 10433 10433 10432 10431 10429 10427 10425 10423 10422 10421 10419 10416 10412 10409 10407 10405 10404 10401 10398 10395 10392 10388 10384 10380 10377 10373 10369 10365 10362 10357 10353 10348 10344 10340 10336 10331 10326 10320 10314 10309 10304
10412 10414 10417 10420 10422 10424 10426 10429 10429 10429 10431 10434 10436 10437 10437 10438 10440 10440 10440 10439 10439 10439 10439 10439 10439 10441 10442 10442 10441 10439 10438 10438 10436 10434 10433 10431 10429 10427 10426 10425 10423 10422 10421 10421 10420 10420 10418 10417 10415 10413 10412 10411 10410 10409 10407 10404 10401 10398 10397 10395 10393 10390 10388 10385 10381 10378 10374 10370 10367 10364 10360 10356 10352 10347 10343 10339 10335 10331 10326 10322 10316 10310 10304 10299 10293
10398 10398 10398 10400 10402 10404 10408 10410 10412 10414 10415 10417 10420 10421 10422 10423 10425 10425 10425 10424 10422 10421 10422 10423 10424 10426 10427 10427 10427 10426 10426 10425 10423 10420 10417 10416 10415 10415 10414 10413 10411 10409 10408 10408 10407 10406 10404 10403 10402 10400 10400 10399 10398 10396 10394 10392 10390 10389 10387 10385 10383 10380 10377 10373 10370 10366 10363 10360 10357 10354 10350 10346 10342 10337 10332 10328 10325 10321 10316 10311 10306 10300 10294 10288 10283
10382 10383 10382 10382 10383 10386 10390 10392 10394 10397 10399 10402 10404 10406 10407 10408 10409 10410 10410 10409 10407 10407 10407 10408 10410 10410 10411 10412 10413 10413 10412 10411 10409 10405 10403 10403 10403 10402 10400 10399 10397 10396 10396 10395 10394 10393 10392 10391 10390 10389 10389 10388 10386 10384 10383 10382 10381 10379 10377 10374 10372 10369 10365 10362 10359 10355 10353 10350 10347 10344 10340 10336 10331 10326 10322 10317 10314 10310 10305 10300 10295 10290 10284 10279 10273
10364 10366 10366 10367 10367 10369 10373 10376 10378 10380 10382 10385 10388 10391 10392 10393 10394 10396 10395 10394 10394 10394 10394 10394 10394 10394 10396 10398 10399 10398 10397 10396 10394 10391 10391 10391 10391 10389 10387 10385 10384 10384 10384 10383 10382 10381 10380 10380 10378 10377 10377 10376 10375 10374 10373 10372 10370 10369 10366 10364 10361 10358 10354 10351 10348 10345 10342 10339 10336 10333 10329 10324 10319 10314 10310 10306 10302 10298 10293 10288 10284 10279 10274 10269 10264
10347 10348 10350 10353 10354 10355 10357 10359 10361 10363 10366 10369 10372 10375 10377 10378 10378 10380 10381 10381 10381 10381 10382 10382 10380 10379 10381 10385 10386 10384 10384 10382 10380 10379 10380 10379 10377 10376 10375 10373 10372 10373 10373 10372 10370 10370 10369 10369 10368 10367 10366 10366 10365 10364 10363 10361 10360 10358 10355 10352 10350 10347 10344 10340 10337 10335 10331 10329 10325 10321 10317 10312 10307 10302 10298 10294 10290 10286 10282 10278 10274 10269 10265 10260 10255
10330 10331 10334 10337 10339 10341 10343 10343 10344 10345 10349 10352 10356 10359 10361 10362 10362 10364 10366 10367 10368 10369 10369 10369 10368 10367 10368 10371 10372 10372 10371 10369 10368 10367 10368 10366 10365 10364 10363 10362 10361 10362 10361 10360 10360 10359 10359 10358 10358 10357 10357 10356 10355 10354 10352 10351 10349 10346 10344 10342 10339 10336 10333 10330 10327 10324 10321 10318 10314 10310 10305 10300 10296 10291 10287 10283 10280 10276 10272 10268 10264 10259 10254 10249 10244
10312 10315 10318 10321 10323 10326 10328 10329 10329 10331 10333 10337 10340 10343 10345 10346 10348 10350 10351 10353 10354 10356 10356 10357 10358 10358 10357 10358 10359 10359 10359 10357 10356 10355 10355 10355 10353 10352 10351 10352 10351 10350 10350 10350 10350 10349 10349 10348 10347 10347 10346 10346 10345 10343 10341 10339 10337 10335 10333 10331 10328 10325 10322 10319 10316 10313 10310 10307 10303 10298 10294 10289 10284 10280 10277 10273 10270 10266 10262 10258 10253 10249 10244 10239 10234
10293 10297 10300 10304 10307 10310 10312 10314 10316 10317 10319 10322 10324 10327 10329 10331 10333 10335 10337 10339 10341 10343 10343 10345 10347 10347 10347 10347 10348 10347 10346 10345 10344 10344 10344 10343 10341 10341 10341 10342 10341 10340 10340 10341 10340 10339 10338 10338 10337 10337 10336 10335 10334 10333 10331 10328 10326 10324 10322 10319 10317 10314 10311 10308 10305 10302 10298 10295 10291 10286 10282 10278 10274 10271 10268 10263 10259 10255 10251 10247 10242 10238 10233 10228 10223
10276 10279 10283 10286 10290 10294 10296 10298 10300 10303 10305 10307 10309 10312 10314 10316 10318 10321 10324 10326 10328 10329 10330 10332 10333 10335 10336 10337 10336 10336 10335 10334 10333 10333 10333 10331 10330 10330 10331 10331 10331 10331 10331 10330 10330 10329 10328 10328 10327 10326 10326 10325 10323 10322 10319 10317 10315 10312 10310 10307 10305 10302 10299 10296 10293 10290 10287 10283 10280 10276 10272 10268 10264 10261 10257 10253 10248 10244 10240 10236 10231 10226 10222 10217 10212
10261 10264 10267 10270 10273 10277 10280 10282 10285 10288 10290 10292 10294 10297 10299 10301 10304 10307 10310 10313 10314 10316 10318 10320 10321 10323 10325 10326 10326 10325 10324 10323 10322 10322 10321 10320 10319 10320 10321 10322 10322 10321 10320 10320 10320 10319 10318 10317 10317 10316 10315 10314 10312 10310 10308 10306 10303 10301 10298 10296 10293 10290 10287 10284 10282 10279 10276 10272 10269 10265 10261 10257 10253 10250 10246 10242 10238 10234 10229 10224 10220 10215 10210 10206 10200
10246 10248 10252 10254 10257 10261 10264 10267 10269 10272 10274 10277 10279 10282 10284 10287 10290 10293 10296 10298 10300 10304 10306 10307 10308 10310 10312 10314 10314 10314 10313 10312 10311 10310 10309 10309 10309 10310 10311 10312 10311 10310 10310 10310 10309 10308 10308 10307 10306 10306 10304 10303 10301 10299 10296 10294 10292 10289 10287 10284 10281 10278 10276 10273 10270 10267 10264 10261 10258 10254 10250 10246 10243 10239 10235 10231 10227 10222 10218 10213 10209 10204 10199 10194 10189
10231 10234 10237 10240 10242 10245 10248 10251 10254 10256 10259 10261 10264 10266 10270 10273 10275 10277 10281 10284 10287 10290 10292 10293 10295 10297 10299 10301 10302 10302 10301 10300 10299 10298 10298 10298 10299 10300 10301 10300 10300 10300 10300 10300 10298 10298 10297 10296 10295 10294 10293 10291 10289 10287 10285 10283 10281 10278 10276 10273 10270 10267 10264 10261 10259 10256 10253 10249 10246 10242 10238 10235 10231 10227 10223 10220 10215 10211 10206 10202 10197 10193 10188 10183 10178
10216 10219 10222 10225 10228 10231 10233 10235 10238 10241 10244 10247 10249 10252 10254 10257 10260 10263 10266 10270 10273 10275 10277 10280 10282 10284 10286 10288 10288 10288 10288 10287 10287 10287 10287 10287 10288 10289 10289 10289 10289 10290 10289 10288 10287 10287 10286 10285 10284 10282 10280 10279 10277 10275 10273 10272 10269 10267 10264 10261 10258 10255 10252 10250 10247 10244 10241 10238 10234 10231 10227 10223 10220 10216 10212 10208 10203 10199 10195 10191 10186 10181 10176 10172 10167
10200 10203 10206 10210 10214 10217 10219 10221 10223 10226 10229 10232 10235 10237 10240 10242 10245 10248 10252 10255 10258 10261 10263 10266 10268 10270 10272 10274 10274 10275 10275 10275 10276 10276 10276 10276 10277 10277 10277 10278 10278 10278 10277 10276 10276 10275 10274 10273 10272 10270 10268 10267 10265 10263 10262 10260 10257 10254 10252 10248 10246 10243 10240 10238 10235 10232 10229 10226 10223 10219 10216 10212 10208 10204 10200 10196 10192 10187 10183 10179 10175 10171 10166 10161 10155
10184 10187 10190 10194 10198 10202 10205 10208 10210 10212 10215 10217 10220 10223 10225 10228 10230 10234 10237 10241 10244 10246 10249 10252 10254 10256 10257 10259 10261 10263 10264 10264 10264 10264 10264 10265 10264 10264 10265 10266 10266 10265 10265 10264 10263 10263 10262 10261 10260 10258 10256 10255 10253 10251 10249 10247 10244 10242 10239 10236 10234 10231 10228 10226 10223 10220 10217 10214 10211 10207 10204 10200 10196 10191 10187 10184 10180 10175 10172 10168 10163 10159 10154 10149 10143
10167 10171 10174 10177 10181 10185 10189 10193 10195 10198 10200 10203 10205 10208 10211 10213 10215 10219 10222 10226 10229 10232 10235 10238 10240 10241 10243 10245 10248 10250 10252 10252 10252 10252 10252 10252 10252 10253 10254 10254 10253 10253 10252 10252 10251 10250 10249 10248 10247 10245 10244 10242 10241 10238 10236 10234 10231 10229 10226 10224 10221 10219 10216 10213 10210 10208 10205 10202 10198 10195 10191 10187 10183 10179 10175 10171 10167 10163 10159 10155 10151 10146 10142 10136 10131
10150 10154 10157 10160 10163 10167 10171 10175 10179 10182 10185 10188 10191 10194 10196 10198 10201 10204 10208 10211 10214 10217 10220 10223 10225 10227 10229 10232 10234 10237 10238 10238 10238 10239 10239 10239 10240 10240 10241 10241 10240 10240 10239 10238 10238 10237 10235 10234 10233 10232 10230 10229 10227 10225 10223 10220 10218 10216 10213 10211 10209 10206 10203 10200 10197 10195 10192 10189 10186 10182 10179 10174 10170 10166 10161 10157 10153 10150 10146 10142 10137 10133 10129 10124 10118
10134 10137 10139 10142 10145 10149 10152 10156 10160 10164 10167 10171 10175 10178 10180 10183 10186 10190 10193 10196 10199 10202 10205 10208 10210 10213 10215 10217 10220 10221 10223 10224 10224 10225 10226 10226 10227 10227 10228 10227 10227 10226 10225 10225 10224 10223 10222 10221 10220 10218 10216 10215 10212 10210 10208 10206 10204 10202 10200 10198 10196 10193 10191 10188 10185 10182 10179 10176 10173 10169 10166 10161 10157 10153 10148 10144 10140 10136 10132 10128 10124 10120 10115 10110 10105
10117 10119 10121 10123 10125 10128 10131 10135 10139 10143 10148 10153 10157 10161 10164 10168 10171 10175 10178 10181 10184 10187 10190 10193 10196 10198 10200 10203 10205 10207 10209 10209 10210 10211 10212 10212 10213 10214 10214 10214 10214 10213 10212 10212 10211 10210 10209 10208 10206 10204 10202 10200 10198 10195 10193 10191 10190 10189 10187 10185 10183 10180 10177 10174 10171 10168 10166 10163 10160 10156 10152 10148 10144 10140 10135 10131 10127 10123 10119 10115 10111 10106 10102 10097 10092
10094 10097 10100 10102 10103 10105 10109 10113 10117 10122 10128 10133 10138 10143 10148 10152 10156 10159 10162 10165 10169 10172 10175 10178 10181 10182 10185 10187 10190 10192 10194 10195 10196 10197 10198 10198 10199 10200 10200 10200 10200 10199 10198 10198 10197 10196 10195 10194 10192 10190 10188 10185 10183 10181 10179 10178 10177 10175 10173 10171 10169 10166 10163 10160 10157 10155 10152 10150 10146 10143 10139 10135 10131 10127 10122 10118 10114 10110 10106 10102 10097 10093 10088 10083 10078
10071 10074 10078 10081 10083 10085 10088 10092 10097 10102 10108 10114 10120 10125 10130 10134 10139 10143 10145 10149 10153 10156 10159 10162 10164 10167 10169 10172 10174 10176 10178 10179 10181 10183 10184 10184 10185 10185 10185 10185 10185 10184 10184 10183 10183 10182 10181 10179 10177 10175 10172 10170 10168 10167 10166 10165 10163 10161 10159 10157 10155 10152 10149 10146 10143 10141 10138 10136 10133 10130 10126 10122 10118 10114 10109 10105 10101 10097 10093 10089 10084 10080 10075 10070 10065
10052 10056 10059 10062 10064 10066 10069 10072 10077 10082 10088 10094 10101 10107 10112 10116 10121 10125 10128 10132 10135 10139 10143 10146 10149 10151 10154 10156 10158 10160 10162 10164 10166 10168 10169 10170 10170 10170 10171 10170 10170 10170 10169 10169 10168 10167 10166 10164 10162 10159 10157 10155 10154 10153 10152 10151 10149 10147 10145 10143 10140 10138 10135 10132 10129 10127 10124 10121 10119 10116 10112 10109 10105 10100 10096 10092 10087 10083 10079 10075 10071 10066 10061 10056 10051
10039 10041 10044 10046 10047 10048 10050 10052 10057 10062 10069 10075 10081 10087 10093 10098 10103 10107 10111 10115 10118 10122 10126 10130 10133 10136 10139 10142 10144 10146 10147 10149 10151 10153 10154 10155 10155 10155 10155 10155 10155 10154 10154 10154 10153 10152 10150 10149 10147 10145 10143 10141 10140 10139 10138 10137 10135 10132 10130 10128 10125 10123 10121 10118 10115 10113 10110 10107 10105 10102 10098 10095 10091 10087 10082 10078 10074 10070 10066 10061 10057 10052 10048 10043 10037
10027 10027 10029 10031 10032 10032 10033 10035 10038 10043 10050 10056 10062 10068 10074 10080 10085 10089 10093 10097 10101 10105 10109 10113 10116 10119 10122 10125 10128 10129 10131 10133 10134 10136 10137 10139 10139 10139 10139 10139 10139 10138 10138 10137 10137 10136 10135 10133 10132 10130 10129 10128 10127 10126 10124 10122 10120 10118 10116 10113 10111 10108 10106 10104 10101 10098 10096 10093 10091 10087 10084 10081 10077 10073 10069 10065 10061 10056 10052 10047 10043 10038 10034 10029 10023
10009 10010 10012 10014 10015 10016 10018 10021 10024 10027 10032 10038 10044 10050 10056 10061 10067 10072 10077 10081 10085 10089 10092 10096 10099 10102 10104 10107 10110 10111 10113 10115 10117 10118 10120 10121 10122 10122 10123 10122 10122 10122 10122 10121 10120 10120 10119 10118 10117 10116 10115 10114 10113 10111 10109 10107 10105 10104 10101 10099 10096 10094 10091 10089 10087 10084 10081 10079 10076 10073 10070 10067 10063 10060 10056 10051 10047 10043 10038 10034 10029 10024 10020 10015 10010
9991 9993 9995 9996 9997 9999 10003 10007 10010 10013 10017 10022 10028 10033 10038 10044 10049 10054 10060 10065 10069 10072 10075 10078 10081 10084 10087 10089 10091 10093 10095 10097 10099 10101 10103 10104 10105 10106 10106 10106 10106 10106 10106 10105 10104 10104 10104 10103 10102 10101 10101 10100 10098 10097 10095 10093 10091 10089 10087 10085 10082 10080 10077 10075 10072 10070 10067 10064 10061 10058 10055 10052 10049 10045 10041 10037 10033 10029 10025 10020 10015 10010 10006 10001 9997